Погода в Сенной Губе

Россия / Республика Карелия     61°59′50″N   35°13′28″E
темп.,
°C
ветер,
м/с
пор.,
м/с
влажн.,
%
обл.,
%
осадки,
мм/ч
давл.,
гПа
погр.,
м
26 мая, чт
чт2600:00+5ссв338090 0.0 101222
03:00+3св348794 0.0 101139
06:00+3ссв44888 0.0 101068
09:00+3ссз22854 0.0 100816
12:00+5зюз33770 0.0 100755
15:00+6ююз22700 0.0 100418
18:00+6юз44723 0.0 100229
21:00+6ю33684 0.0 100110
27 мая, пт
пт2700:00+5ююз3371100 0.0 99810
03:00+4ю3373100 0.0 99717
06:00+4ююв337887 0.0 99523
09:00+4ююв338694 0.0 99429
12:00+5ююв338565 0.0 99420
15:00+6ююв228159 0.0 99313
18:00+6ююв579498 0.0 99356
21:00+5ююв3399100 0.3 99327
28 мая, сб
сб2800:00+5ю33100100 1.9 99316
03:00+5ююз33100100 2.1 99316
06:00+4ююв5699100 0.1 99443
09:00+5юв3393100 0.1 99517
12:00+6в2291100 0.0 99510
15:00+7всв4493100 0.1 99518
18:00+6ссв4498100 0.3 99623
21:00+6с44100100 1.0 99615
29 мая, вс
вс2900:00+6сз22100100 1.2 99710
03:00+5з33100100 3.1 99711
06:00+5юз44100100 1.1 99923
09:00+5ю4410094 2.1 100024
12:00+5ююв449538 0.0 100229
15:00+6ююв569380 0.0 100440
18:00+7ю558532 0.0 100517
21:00+6ю448867 0.0 100719
30 мая, пн
пн3000:00+6юз5592100 0.0 100935
03:00+5ююв579891 0.1 101046
06:00+5ююв559891 0.5 101136
09:00+5ююв689690 0.5 101359
12:00+5ююв5595100 0.1 101531
15:00+6ююв449326 0.1 101619
18:00+6юв558992 0.0 101818
21:00+7юв4485100 0.0 101917